| time (UTC) | temp C | wind direction | speed KPH | gust KPH | rain 1hr cm | rain 24hr cm | rain mn cm | humidity % | barometer mb |
| 20260504193335 | 22 | 257 | 11.3 | 17.7 | 0.00 | 0.00 | 0.00 | 39 | 1003.6 |
| 20260504192853 | 21 | 247 | 6.4 | 24.1 | 0.00 | 0.00 | 0.00 | 42 | 1003.5 |
| 20260504192352 | 21 | 226 | 9.7 | 24.1 | 0.00 | 0.00 | 0.00 | 40 | 1003.9 |
| 20260504191857 | 21 | 235 | 8.0 | 20.9 | 0.00 | 0.00 | 0.00 | 41 | 1003.8 |
| 20260504191352 | 21 | 192 | 4.8 | 14.5 | 0.00 | 0.00 | 0.00 | 46 | 1003.8 |
| 20260504190854 | 20 | 246 | 6.4 | 22.5 | 0.00 | 0.00 | 0.00 | 49 | 1003.9 |
| 20260504190351 | 21 | 243 | 9.7 | 22.5 | 0.00 | 0.00 | 0.00 | 42 | 1004.0 |
| 20260504185850 | 21 | 280 | 6.4 | 24.1 | 0.00 | 0.00 | 0.00 | 44 | 1004.1 |
| 20260504185347 | 21 | 291 | 9.7 | 25.7 | 0.00 | 0.00 | 0.00 | 43 | 1004.0 |
| 20260504184854 | 21 | 245 | 17.7 | 25.7 | 0.00 | 0.00 | 0.00 | 41 | 1004.1 |
| 20260504184354 | 21 | 191 | 8.0 | 22.5 | 0.00 | 0.00 | 0.00 | 46 | 1004.0 |
| 20260504183852 | 21 | 215 | 11.3 | 22.5 | 0.00 | 0.00 | 0.00 | 43 | 1004.1 |
| 20260504183343 | 21 | 180 | 12.9 | 22.5 | 0.00 | 0.00 | 0.00 | 43 | 1004.0 |
| 20260504182837 | 21 | 257 | 9.7 | 19.3 | 0.00 | 0.00 | 0.00 | 42 | 1004.0 |
| 20260504182353 | 21 | 181 | 4.8 | 16.1 | 0.00 | 0.00 | 0.00 | 46 | 1004.1 |
| 20260504181851 | 20 | 195 | 8.0 | 27.4 | 0.00 | 0.00 | 0.00 | 42 | 1004.3 |
| 20260504181408 | 21 | 245 | 11.3 | 27.4 | 0.00 | 0.00 | 0.00 | 43 | 1004.2 |
| 20260504180836 | 21 | 254 | 8.0 | 27.4 | 0.00 | 0.00 | 0.00 | 45 | 1004.3 |
| 20260504180356 | 20 | 244 | 9.7 | 27.4 | 0.00 | 0.00 | 0.00 | 46 | 1004.4 |
| 20260504175847 | 20 | 215 | 12.9 | 32.2 | 0.00 | 0.00 | 0.00 | 43 | 1004.6 |
| 20260504175344 | 20 | 265 | 9.7 | 29.0 | 0.00 | 0.00 | 0.00 | 51 | 1004.5 |
| 20260504174850 | 21 | 282 | 12.9 | 29.0 | 0.00 | 0.00 | 0.00 | 45 | 1004.6 |
| 20260504174411 | 21 | 239 | 9.7 | 17.7 | 0.00 | 0.00 | 0.00 | 47 | 1004.7 |
| 20260504173853 | 20 | 225 | 8.0 | 27.4 | 0.00 | 0.00 | 0.00 | 45 | 1004.7 |
| 20260504173335 | 20 | 5 | 12.9 | 27.4 | 0.00 | 0.00 | 0.00 | 47 | 1004.7 |
| 20260504172834 | 20 | 170 | 9.7 | 19.3 | 0.00 | 0.00 | 0.00 | 50 | 1004.9 |
| 20260504172355 | 20 | 273 | 6.4 | 32.2 | 0.00 | 0.00 | 0.00 | 51 | 1005.0 |
| 20260504171914 | 19 | 286 | 11.3 | 32.2 | 0.00 | 0.00 | 0.00 | 48 | 1004.9 |
| 20260504171346 | 20 | 235 | 11.3 | 27.4 | 0.00 | 0.00 | 0.00 | 49 | 1004.9 |
| 20260504170857 | 20 | 259 | 12.9 | 27.4 | 0.00 | 0.00 | 0.00 | 49 | 1005.0 |
| 20260504170339 | 19 | 196 | 11.3 | 25.7 | 0.00 | 0.00 | 0.00 | 52 | 1005.0 |
| 20260504160334 | 17 | 277 | 9.7 | 19.3 | 0.00 | 0.00 | 0.00 | 52 | 1005.5 |
| 20260504150855 | 16 | 186 | 12.9 | 24.1 | 0.00 | 0.00 | 0.00 | 53 | 1005.9 |
| 20260504150344 | 16 | 276 | 9.7 | 20.9 | 0.00 | 0.00 | 0.00 | 54 | 1005.9 |
| 20260504140859 | 15 | 205 | 3.2 | 17.7 | 0.00 | 0.00 | 0.00 | 56 | 1005.9 |
| 20260504140351 | 15 | 246 | 11.3 | 19.3 | 0.00 | 0.00 | 0.00 | 60 | 1005.8 |
| 20260504130337 | 11 | 119 | 6.4 | 11.3 | 0.00 | 0.00 | 0.00 | 64 | 1006.3 |
| 20260504110348 | 8 | 148 | 8.0 | 20.9 | 0.00 | 0.05 | 0.00 | 66 | 1006.2 |
| 20260504100401 | 8 | 247 | 3.2 | 20.9 | 0.00 | 0.05 | 0.00 | 65 | 1005.8 |
| 20260504081851 | 7 | 218 | 3.2 | 19.3 | 0.00 | 0.05 | 0.00 | 69 | 1006.6 |
| 20260504070344 | 7 | 247 | 3.2 | 6.4 | 0.00 | 0.05 | 0.00 | 69 | 1007.3 |
| 20260504050332 | 7 | 267 | 4.8 | 12.9 | 0.00 | 0.05 | 0.00 | 64 | 1008.1 |
| 20260504045839 | 7 | 277 | 4.8 | 16.1 | 0.00 | 0.05 | 0.00 | 64 | 1008.1 |
| 20260504045343 | 7 | 222 | 6.4 | 16.1 | 0.00 | 0.05 | 0.00 | 65 | 1008.0 |
| 20260504044833 | 7 | 166 | 3.2 | 16.1 | 0.00 | 0.05 | 0.00 | 66 | 1008.1 |
| 20260504044338 | 7 | 217 | 4.8 | 16.1 | 0.00 | 0.05 | 0.00 | 66 | 1008.1 |
| 20260504043841 | 7 | 197 | 3.2 | 14.5 | 0.00 | 0.05 | 0.00 | 66 | 1008.1 |
| 20260504043343 | 7 | 228 | 6.4 | 19.3 | 0.00 | 0.05 | 0.00 | 65 | 1008.1 |
| 20260504042837 | 7 | 224 | 4.8 | 14.5 | 0.00 | 0.05 | 0.00 | 67 | 1008.1 |
| 20260504042334 | 7 | 242 | 4.8 | 12.9 | 0.00 | 0.05 | 0.00 | 67 | 1008.1 |
| 20260504041847 | 7 | 190 | 6.4 | 14.5 | 0.00 | 0.05 | 0.00 | 66 | 1008.1 |
| 20260504041348 | 7 | 227 | 4.8 | 14.5 | 0.00 | 0.05 | 0.00 | 66 | 1008.1 |
| 20260504040845 | 7 | 275 | 3.2 | 11.3 | 0.00 | 0.05 | 0.00 | 66 | 1008.0 |
| 20260504040341 | 7 | 219 | 3.2 | 11.3 | 0.00 | 0.05 | 0.00 | 66 | 1008.0 |
| 20260504035841 | 7 | 227 | 4.8 | 11.3 | 0.00 | 0.05 | 0.05 | 67 | 1008.2 |
| 20260504035349 | 7 | 234 | 4.8 | 17.7 | 0.00 | 0.05 | 0.05 | 67 | 1008.3 |
| 20260504034847 | 7 | 265 | 3.2 | 17.7 | 0.00 | 0.05 | 0.05 | 67 | 1008.0 |
| 20260504034332 | 7 | 183 | 1.6 | 16.1 | 0.00 | 0.05 | 0.05 | 67 | 1008.1 |
| 20260504033838 | 8 | 248 | 1.6 | 12.9 | 0.00 | 0.05 | 0.05 | 65 | 1008.1 |
| 20260504033337 | 8 | 247 | 4.8 | 9.7 | 0.00 | 0.05 | 0.05 | 65 | 1008.3 |
| 20260504032901 | 8 | 182 | 3.2 | 11.3 | 0.00 | 0.05 | 0.05 | 65 | 1008.3 |
| 20260504032343 | 8 | 226 | 4.8 | 11.3 | 0.00 | 0.05 | 0.05 | 64 | 1008.4 |
| 20260504031831 | 8 | 242 | 4.8 | 19.3 | 0.00 | 0.05 | 0.05 | 64 | 1008.4 |
| 20260504031347 | 8 | 231 | 4.8 | 19.3 | 0.00 | 0.05 | 0.05 | 62 | 1008.3 |
| 20260504030848 | 8 | 236 | 4.8 | 16.1 | 0.00 | 0.05 | 0.05 | 62 | 1008.4 |
| 20260504030331 | 8 | 226 | 6.4 | 16.1 | 0.00 | 0.05 | 0.05 | 61 | 1008.4 |
| 20260504025839 | 9 | 262 | 6.4 | 14.5 | 0.00 | 0.05 | 0.05 | 60 | 1008.4 |
| 20260504025404 | 9 | 175 | 6.4 | 17.7 | 0.00 | 0.05 | 0.05 | 61 | 1008.5 |
| 20260504024840 | 9 | 214 | 3.2 | 17.7 | 0.00 | 0.05 | 0.05 | 61 | 1008.5 |
| 20260504024407 | 9 | 213 | 6.4 | 17.7 | 0.00 | 0.05 | 0.05 | 60 | 1008.5 |
| 20260504023831 | 10 | 247 | 4.8 | 14.5 | 0.00 | 0.05 | 0.05 | 59 | 1008.6 |
| 20260504023333 | 10 | 231 | 6.4 | 16.1 | 0.00 | 0.05 | 0.05 | 59 | 1008.6 |
| 20260504022839 | 10 | 216 | 8.0 | 16.1 | 0.00 | 0.05 | 0.05 | 57 | 1008.6 |
| 20260504022341 | 10 | 187 | 8.0 | 19.3 | 0.00 | 0.05 | 0.05 | 57 | 1008.7 |
| 20260504021835 | 10 | 248 | 8.0 | 19.3 | 0.00 | 0.05 | 0.05 | 57 | 1008.7 |
| 20260504021348 | 10 | 221 | 6.4 | 27.4 | 0.00 | 0.05 | 0.05 | 57 | 1008.7 |
| 20260504020841 | 10 | 238 | 6.4 | 27.4 | 0.00 | 0.05 | 0.05 | 57 | 1008.7 |
| 20260504020333 | 10 | 267 | 11.3 | 22.5 | 0.00 | 0.05 | 0.05 | 56 | 1008.6 |
| 20260504015834 | 10 | 211 | 9.7 | 22.5 | 0.00 | 0.05 | 0.05 | 56 | 1008.6 |
| 20260504015348 | 10 | 204 | 8.0 | 22.5 | 0.00 | 0.05 | 0.05 | 56 | 1008.6 |
| 20260504014840 | 10 | 271 | 9.7 | 30.6 | 0.00 | 0.05 | 0.05 | 56 | 1008.5 |
| 20260504014337 | 10 | 248 | 12.9 | 30.6 | 0.00 | 0.05 | 0.05 | 57 | 1008.4 |
| 20260504013842 | 10 | 261 | 9.7 | 33.8 | 0.00 | 0.05 | 0.05 | 56 | 1008.5 |
| 20260504013350 | 10 | 221 | 12.9 | 33.8 | 0.00 | 0.05 | 0.05 | 56 | 1008.4 |
| 20260504012850 | 10 | 203 | 6.4 | 25.7 | 0.00 | 0.05 | 0.05 | 57 | 1008.4 |
| 20260504012337 | 10 | 248 | 8.0 | 17.7 | 0.00 | 0.05 | 0.05 | 56 | 1008.5 |
| 20260504011852 | 10 | 155 | 11.3 | 27.4 | 0.00 | 0.05 | 0.05 | 56 | 1008.4 |
| 20260504011354 | 10 | 251 | 11.3 | 27.4 | 0.00 | 0.05 | 0.05 | 57 | 1008.4 |
| 20260504010834 | 10 | 215 | 11.3 | 27.4 | 0.00 | 0.05 | 0.05 | 55 | 1008.4 |
| 20260504010404 | 10 | 193 | 14.5 | 33.8 | 0.00 | 0.05 | 0.05 | 56 | 1008.3 |
| 20260504005849 | 10 | 269 | 14.5 | 33.8 | 0.00 | 0.05 | 0.05 | 56 | 1008.4 |
| 20260504005336 | 10 | 227 | 9.7 | 25.7 | 0.00 | 0.05 | 0.05 | 56 | 1008.3 |
| 20260504004844 | 10 | 218 | 4.8 | 17.7 | 0.00 | 0.05 | 0.05 | 56 | 1008.4 |
| 20260504004344 | 10 | 213 | 6.4 | 19.3 | 0.00 | 0.05 | 0.05 | 58 | 1008.5 |
| 20260504003915 | 10 | 221 | 8.0 | 19.3 | 0.00 | 0.05 | 0.05 | 56 | 1008.4 |
| 20260504003330 | 10 | 255 | 8.0 | 22.5 | 0.00 | 0.05 | 0.05 | 55 | 1008.5 |
| 20260504002850 | 10 | 242 | 9.7 | 22.5 | 0.00 | 0.05 | 0.05 | 55 | 1008.4 |
| 20260504002347 | 10 | 223 | 11.3 | 24.1 | 0.00 | 0.05 | 0.05 | 55 | 1008.4 |
| 20260504001903 | 10 | 223 | 9.7 | 24.1 | 0.00 | 0.05 | 0.05 | 55 | 1008.3 |
| 20260504001334 | 10 | 192 | 9.7 | 30.6 | 0.00 | 0.05 | 0.05 | 56 | 1008.4 |
| 20260504000831 | 10 | 277 | 12.9 | 30.6 | 0.00 | 0.05 | 0.05 | 55 | 1008.3 |
| 20260504000354 | 10 | 228 | 8.0 | 30.6 | 0.00 | 0.05 | 0.05 | 54 | 1008.3 |
| 20260503235837 | 10 | 227 | 6.4 | 22.5 | 0.00 | 0.05 | 0.05 | 54 | 1008.3 |
| 20260503235343 | 10 | 267 | 6.4 | 22.5 | 0.00 | 0.05 | 0.05 | 54 | 1008.3 |
| 20260503234839 | 10 | 267 | 4.8 | 29.0 | 0.00 | 0.05 | 0.05 | 55 | 1008.3 |
| 20260503234340 | 10 | 286 | 8.0 | 29.0 | 0.00 | 0.05 | 0.05 | 54 | 1008.3 |
| 20260503233843 | 10 | 226 | 9.7 | 20.9 | 0.00 | 0.05 | 0.05 | 54 | 1008.3 |
| 20260503233348 | 10 | 226 | 11.3 | 20.9 | 0.00 | 0.05 | 0.05 | 54 | 1008.3 |
| 20260503232836 | 10 | 255 | 8.0 | 35.4 | 0.00 | 0.05 | 0.05 | 53 | 1008.3 |
| 20260503232406 | 10 | 215 | 9.7 | 35.4 | 0.00 | 0.05 | 0.05 | 53 | 1008.1 |
| 20260503231838 | 11 | 232 | 8.0 | 25.7 | 0.00 | 0.05 | 0.05 | 53 | 1008.4 |
| 20260503231347 | 11 | 209 | 8.0 | 25.7 | 0.00 | 0.05 | 0.05 | 52 | 1008.4 |
| 20260503230849 | 11 | 237 | 9.7 | 22.5 | 0.00 | 0.05 | 0.05 | 52 | 1008.4 |
| 20260503230346 | 11 | 246 | 9.7 | 22.5 | 0.00 | 0.05 | 0.05 | 52 | 1008.4 |
| 20260503225836 | 11 | 249 | 4.8 | 29.0 | 0.00 | 0.05 | 0.05 | 50 | 1008.5 |
| 20260503225341 | 11 | 214 | 8.0 | 29.0 | 0.00 | 0.05 | 0.05 | 49 | 1008.5 |
| 20260503224835 | 11 | 242 | 9.7 | 29.0 | 0.00 | 0.05 | 0.05 | 49 | 1008.5 |
| 20260503224333 | 11 | 244 | 11.3 | 33.8 | 0.00 | 0.05 | 0.05 | 48 | 1008.5 |
| 20260503223837 | 11 | 224 | 11.3 | 33.8 | 0.00 | 0.05 | 0.05 | 48 | 1008.6 |
| 20260503223337 | 11 | 278 | 8.0 | 17.7 | 0.00 | 0.05 | 0.05 | 49 | 1008.8 |
| 20260503222843 | 11 | 230 | 8.0 | 20.9 | 0.00 | 0.05 | 0.05 | 50 | 1008.8 |
| 20260503222333 | 11 | 157 | 8.0 | 27.4 | 0.00 | 0.05 | 0.05 | 49 | 1008.7 |
| 20260503221837 | 11 | 69 | 9.7 | 29.0 | 0.00 | 0.05 | 0.05 | 48 | 1008.7 |
| 20260503221344 | 11 | 234 | 11.3 | 29.0 | 0.00 | 0.05 | 0.05 | 48 | 1008.4 |
| 20260503220850 | 11 | 238 | 11.3 | 30.6 | 0.00 | 0.05 | 0.05 | 50 | 1008.7 |
| 20260503220352 | 11 | 300 | 8.0 | 30.6 | 0.00 | 0.05 | 0.05 | 49 | 1008.5 |
| 20260503215839 | 11 | 200 | 9.7 | 24.1 | 0.00 | 0.05 | 0.05 | 48 | 1008.3 |
| 20260503215335 | 11 | 263 | 6.4 | 20.9 | 0.00 | 0.05 | 0.05 | 48 | 1008.4 |
| 20260503214838 | 11 | 188 | 14.5 | 25.7 | 0.00 | 0.05 | 0.05 | 51 | 1008.3 |
| 20260503214355 | 11 | 213 | 11.3 | 24.1 | 0.00 | 0.05 | 0.05 | 51 | 1008.4 |
| 20260503213330 | 11 | 312 | 12.9 | 24.1 | 0.00 | 0.05 | 0.05 | 50 | 1008.3 |
| 20260503212847 | 12 | 265 | 8.0 | 19.3 | 0.00 | 0.05 | 0.05 | 49 | 1008.3 |
| 20260503212349 | 11 | 232 | 9.7 | 27.4 | 0.00 | 0.05 | 0.05 | 50 | 1008.3 |
| 20260503210837 | 12 | 239 | 8.0 | 16.1 | 0.00 | 0.05 | 0.05 | 49 | 1008.2 |
| 20260503210403 | 12 | 209 | 6.4 | 30.6 | 0.00 | 0.05 | 0.05 | 50 | 1008.3 |
| 20260503205853 | 12 | 248 | 6.4 | 30.6 | 0.00 | 0.05 | 0.05 | 50 | 1008.3 |
| 20260503205401 | 12 | 234 | 11.3 | 29.0 | 0.00 | 0.05 | 0.05 | 48 | 1008.3 |
| 20260503204837 | 12 | 223 | 8.0 | 24.1 | 0.00 | 0.05 | 0.05 | 50 | 1008.3 |
| 20260503204334 | 12 | 209 | 9.7 | 33.8 | 0.00 | 0.05 | 0.05 | 48 | 1008.4 |
| 20260503203855 | 12 | 267 | 11.3 | 29.0 | 0.00 | 0.05 | 0.05 | 48 | 1008.4 |
| 20260503203334 | 13 | 260 | 9.7 | 27.4 | 0.00 | 0.05 | 0.05 | 46 | 1008.5 |
| 20260503202840 | 13 | 192 | 6.4 | 19.3 | 0.00 | 0.05 | 0.05 | 49 | 1008.6 |
| 20260503202350 | 13 | 220 | 8.0 | 24.1 | 0.00 | 0.05 | 0.05 | 47 | 1008.5 |
| 20260503201858 | 13 | 212 | 11.3 | 24.1 | 0.00 | 0.05 | 0.05 | 47 | 1008.6 |
| 20260503201352 | 13 | 219 | 11.3 | 27.4 | 0.00 | 0.05 | 0.05 | 46 | 1008.6 |
| 20260503200831 | 13 | 333 | 12.9 | 27.4 | 0.00 | 0.05 | 0.05 | 45 | 1008.6 |
| 20260503200340 | 13 | 237 | 11.3 | 27.4 | 0.00 | 0.05 | 0.05 | 46 | 1008.6 |
| 20260503195831 | 13 | 265 | 9.7 | 25.7 | 0.00 | 0.05 | 0.05 | 46 | 1008.6 |
| 20260503195331 | 13 | 298 | 8.0 | 19.3 | 0.00 | 0.05 | 0.05 | 46 | 1008.7 |
| 20260503194845 | 13 | 200 | 8.0 | 19.3 | 0.00 | 0.05 | 0.05 | 48 | 1008.9 |
| 20260503194338 | 13 | 252 | 8.0 | 19.3 | 0.00 | 0.05 | 0.05 | 50 | 1008.9 |